Year,Month,Day,Hour,Minute,Value (Times are PST for temperature in C)
2012,10,06,00,00,6.80
2012,10,06,00,01,6.80
2012,10,06,00,02,6.80
2012,10,06,00,03,6.80
2012,10,06,00,04,6.70
2012,10,06,00,05,6.70
2012,10,06,00,06,6.70
2012,10,06,00,07,6.70
2012,10,06,00,08,6.70
2012,10,06,00,09,6.60
2012,10,06,00,10,6.60
2012,10,06,00,11,6.60
2012,10,06,00,12,6.60
2012,10,06,00,13,6.50
2012,10,06,00,14,6.40
2012,10,06,00,15,6.40
2012,10,06,00,16,6.40
2012,10,06,00,17,6.30
2012,10,06,00,18,6.30
2012,10,06,00,19,6.30
2012,10,06,00,20,6.20
2012,10,06,00,21,6.20
2012,10,06,00,22,6.20
2012,10,06,00,23,6.20
2012,10,06,00,24,6.20
2012,10,06,00,25,6.20
2012,10,06,00,26,6.20
2012,10,06,00,27,6.10
2012,10,06,00,28,6.10
2012,10,06,00,29,6.10
2012,10,06,00,30,6.10
2012,10,06,00,31,6.10
2012,10,06,00,32,6.10
2012,10,06,00,33,6.10
2012,10,06,00,34,6.10
2012,10,06,00,35,6.10
2012,10,06,00,36,6.10
2012,10,06,00,37,6.10
2012,10,06,00,38,6.10
2012,10,06,00,39,6.10
2012,10,06,00,40,6.10
2012,10,06,00,41,6.10
2012,10,06,00,42,6.10
2012,10,06,00,43,6.10
2012,10,06,00,44,6.20
2012,10,06,00,45,6.20
2012,10,06,00,46,6.20
2012,10,06,00,47,6.20
2012,10,06,00,48,6.20
2012,10,06,00,49,6.20
2012,10,06,00,50,6.20
2012,10,06,00,51,6.20
2012,10,06,00,52,6.30
2012,10,06,00,53,6.30
2012,10,06,00,54,6.30
2012,10,06,00,55,6.30
2012,10,06,00,56,6.30
2012,10,06,00,57,6.40
2012,10,06,00,58,6.40
2012,10,06,00,59,6.40
2012,10,06,01,00,6.40
2012,10,06,01,01,6.40
2012,10,06,01,02,6.40
2012,10,06,01,03,6.50
2012,10,06,01,04,6.60
2012,10,06,01,05,6.60
2012,10,06,01,06,6.60
2012,10,06,01,07,6.60
2012,10,06,01,08,6.60
2012,10,06,01,09,6.60
2012,10,06,01,10,6.70
2012,10,06,01,11,6.70
2012,10,06,01,12,6.80
2012,10,06,01,13,6.80
2012,10,06,01,14,6.90
2012,10,06,01,15,6.90
2012,10,06,01,16,7.00
2012,10,06,01,17,7.00
2012,10,06,01,18,7.00
2012,10,06,01,19,7.00
2012,10,06,01,20,7.00
2012,10,06,01,21,7.00
2012,10,06,01,22,7.00
2012,10,06,01,23,7.00
2012,10,06,01,24,7.00
2012,10,06,01,25,6.90
2012,10,06,01,26,6.90
2012,10,06,01,27,6.80
2012,10,06,01,28,6.80
2012,10,06,01,29,6.80
2012,10,06,01,30,6.80
2012,10,06,01,31,6.80
2012,10,06,01,32,6.70
2012,10,06,01,33,6.70
2012,10,06,01,34,6.70
2012,10,06,01,35,6.60
2012,10,06,01,36,6.60
2012,10,06,01,37,6.60
2012,10,06,01,38,6.60
2012,10,06,01,39,6.50
2012,10,06,01,40,6.40
2012,10,06,01,41,6.40
2012,10,06,01,42,6.40
2012,10,06,01,43,6.40
2012,10,06,01,44,6.40
2012,10,06,01,45,6.40
2012,10,06,01,46,6.40
2012,10,06,01,47,6.40
2012,10,06,01,48,6.40
2012,10,06,01,49,6.40
2012,10,06,01,50,6.40
2012,10,06,01,51,6.40
2012,10,06,01,52,6.40
2012,10,06,01,53,6.40
2012,10,06,01,54,6.40
2012,10,06,01,55,6.40
2012,10,06,01,56,6.40
2012,10,06,01,57,6.40
2012,10,06,01,58,6.40
2012,10,06,01,59,6.40
2012,10,06,02,00,6.40
2012,10,06,02,01,6.40
2012,10,06,02,02,6.30
2012,10,06,02,03,6.30
2012,10,06,02,04,6.20
2012,10,06,02,05,6.20
2012,10,06,02,06,6.20
2012,10,06,02,07,6.20
2012,10,06,02,08,6.20
2012,10,06,02,09,6.10
2012,10,06,02,10,6.00
2012,10,06,02,11,6.00
2012,10,06,02,12,5.90
2012,10,06,02,13,5.90
2012,10,06,02,14,5.90
2012,10,06,02,15,5.90
2012,10,06,02,16,5.90
2012,10,06,02,17,5.90
2012,10,06,02,18,5.90
2012,10,06,02,19,5.90
2012,10,06,02,20,6.00
2012,10,06,02,21,6.00
2012,10,06,02,22,6.00
2012,10,06,02,23,6.00
2012,10,06,02,24,6.00
2012,10,06,02,25,6.00
2012,10,06,02,26,6.00
2012,10,06,02,27,5.90
2012,10,06,02,28,5.90
2012,10,06,02,29,5.80
2012,10,06,02,30,5.80
2012,10,06,02,31,5.90
2012,10,06,02,32,5.90
2012,10,06,02,33,6.00
2012,10,06,02,34,6.00
2012,10,06,02,35,6.10
2012,10,06,02,36,6.20
2012,10,06,02,37,6.20
2012,10,06,02,38,6.30
2012,10,06,02,39,6.30
2012,10,06,02,40,6.40
2012,10,06,02,41,6.40
2012,10,06,02,42,6.60
2012,10,06,02,43,6.60
2012,10,06,02,44,6.60
2012,10,06,02,45,6.60
2012,10,06,02,46,6.60
2012,10,06,02,47,6.70
2012,10,06,02,48,6.70
2012,10,06,02,49,6.70
2012,10,06,02,50,6.70
2012,10,06,02,51,6.80
2012,10,06,02,52,6.80
2012,10,06,02,53,6.80
2012,10,06,02,54,6.70
2012,10,06,02,55,6.70
2012,10,06,02,56,6.70
2012,10,06,02,57,6.80
2012,10,06,02,58,6.80
2012,10,06,02,59,6.80
2012,10,06,03,00,6.80
2012,10,06,03,01,6.80
2012,10,06,03,02,6.90
2012,10,06,03,03,7.00
2012,10,06,03,04,7.00
2012,10,06,03,05,7.10
2012,10,06,03,06,7.10
2012,10,06,03,07,7.20
2012,10,06,03,08,7.30
2012,10,06,03,09,7.30
2012,10,06,03,10,7.30
2012,10,06,03,11,7.30
2012,10,06,03,12,7.40
2012,10,06,03,13,7.40
2012,10,06,03,14,7.50
2012,10,06,03,15,7.50
2012,10,06,03,16,7.50
2012,10,06,03,17,7.50
2012,10,06,03,18,7.60
2012,10,06,03,19,7.60
2012,10,06,03,20,7.50
2012,10,06,03,21,7.50
2012,10,06,03,22,7.40
2012,10,06,03,23,7.40
2012,10,06,03,24,7.30
2012,10,06,03,25,7.30
2012,10,06,03,26,7.30
2012,10,06,03,27,7.30
2012,10,06,03,28,7.30
2012,10,06,03,29,7.30
2012,10,06,03,30,7.20
2012,10,06,03,31,7.20
2012,10,06,03,32,7.30
2012,10,06,03,33,7.30
2012,10,06,03,34,7.30
2012,10,06,03,35,7.30
2012,10,06,03,36,7.30
2012,10,06,03,37,7.30
2012,10,06,03,38,7.30
2012,10,06,03,39,7.40
2012,10,06,03,40,7.50
2012,10,06,03,41,7.50
2012,10,06,03,42,7.60
2012,10,06,03,43,7.70
2012,10,06,03,44,7.70
2012,10,06,03,45,7.80
2012,10,06,03,46,7.80
2012,10,06,03,47,7.80
2012,10,06,03,48,7.80
2012,10,06,03,49,7.90
2012,10,06,03,50,7.90
2012,10,06,03,51,8.00
2012,10,06,03,52,8.00
2012,10,06,03,53,8.10
2012,10,06,03,54,8.10
2012,10,06,03,55,8.20
2012,10,06,03,56,8.20
2012,10,06,03,57,8.20
2012,10,06,03,58,8.30
2012,10,06,03,59,8.40
2012,10,06,04,00,8.50
2012,10,06,04,01,8.60
2012,10,06,04,02,8.70
2012,10,06,04,03,8.80
2012,10,06,04,04,8.90
2012,10,06,04,05,8.90
2012,10,06,04,06,9.00
2012,10,06,04,07,9.00
2012,10,06,04,08,9.10
2012,10,06,04,09,9.20
2012,10,06,04,10,9.20
2012,10,06,04,11,9.20
2012,10,06,04,12,9.30
2012,10,06,04,13,9.30
2012,10,06,04,14,9.40
2012,10,06,04,15,9.40
2012,10,06,04,16,9.40
2012,10,06,04,17,9.40
2012,10,06,04,18,9.40
2012,10,06,04,19,9.50
2012,10,06,04,20,9.50
2012,10,06,04,21,9.50
2012,10,06,04,22,9.50
2012,10,06,04,23,9.50
2012,10,06,04,24,9.50
2012,10,06,04,25,9.50
2012,10,06,04,26,9.40
2012,10,06,04,27,9.40
2012,10,06,04,28,9.40
2012,10,06,04,29,9.30
2012,10,06,04,30,9.30
2012,10,06,04,31,9.30
2012,10,06,04,32,9.20
2012,10,06,04,33,9.20
2012,10,06,04,34,9.20
2012,10,06,04,35,9.20
2012,10,06,04,36,9.20
2012,10,06,04,37,9.20
2012,10,06,04,38,9.20
2012,10,06,04,39,9.10
2012,10,06,04,40,9.10
2012,10,06,04,41,9.10
2012,10,06,04,42,9.00
2012,10,06,04,43,9.00
2012,10,06,04,44,9.00
2012,10,06,04,45,8.90
2012,10,06,04,46,8.90
2012,10,06,04,47,8.80
2012,10,06,04,48,8.70
2012,10,06,04,49,8.70
2012,10,06,04,50,8.70
2012,10,06,04,51,8.60
2012,10,06,04,52,8.50
2012,10,06,04,53,8.50
2012,10,06,04,54,8.40
2012,10,06,04,55,8.40
2012,10,06,04,56,8.30
2012,10,06,04,57,8.30
2012,10,06,04,58,8.20
2012,10,06,04,59,8.20
2012,10,06,05,00,8.20
2012,10,06,05,01,8.10
2012,10,06,05,02,8.00
2012,10,06,05,03,8.00
2012,10,06,05,04,8.00
2012,10,06,05,05,7.90
2012,10,06,05,06,7.90
2012,10,06,05,07,7.90
2012,10,06,05,08,7.80
2012,10,06,05,09,7.80
2012,10,06,05,10,7.80
2012,10,06,05,11,7.70
2012,10,06,05,12,7.70
2012,10,06,05,13,7.60
2012,10,06,05,14,7.60
2012,10,06,05,15,7.50
2012,10,06,05,16,7.50
2012,10,06,05,17,7.40
2012,10,06,05,18,7.40
2012,10,06,05,19,7.30
2012,10,06,05,20,7.30
2012,10,06,05,21,7.30
2012,10,06,05,22,7.30
2012,10,06,05,23,7.30
2012,10,06,05,24,7.30
2012,10,06,05,25,7.30
2012,10,06,05,26,7.30
2012,10,06,05,27,7.30
2012,10,06,05,28,7.30
2012,10,06,05,29,7.30
2012,10,06,05,30,7.30
2012,10,06,05,31,7.30
2012,10,06,05,32,7.30
2012,10,06,05,33,7.30
2012,10,06,05,34,7.30
2012,10,06,05,35,7.30
2012,10,06,05,36,7.40
2012,10,06,05,37,7.50
2012,10,06,05,38,7.50
2012,10,06,05,39,7.60
2012,10,06,05,40,7.60
2012,10,06,05,41,7.60
2012,10,06,05,42,7.70
2012,10,06,05,43,7.70
2012,10,06,05,44,7.80
2012,10,06,05,45,7.80
2012,10,06,05,46,7.80
2012,10,06,05,47,7.80
2012,10,06,05,48,7.80
2012,10,06,05,49,7.80
2012,10,06,05,50,7.80
2012,10,06,05,51,7.80
2012,10,06,05,52,7.90
2012,10,06,05,53,7.90
2012,10,06,05,54,7.90
2012,10,06,05,55,7.90
2012,10,06,05,56,8.00
2012,10,06,05,57,8.00
2012,10,06,05,58,8.00
2012,10,06,05,59,8.10
2012,10,06,06,00,8.10
2012,10,06,06,01,8.20
2012,10,06,06,02,8.20
2012,10,06,06,03,8.30
2012,10,06,06,04,8.30
2012,10,06,06,05,8.40
2012,10,06,06,06,8.40
2012,10,06,06,07,8.40
2012,10,06,06,08,8.30
2012,10,06,06,09,8.30
2012,10,06,06,10,8.30
2012,10,06,06,11,8.30
2012,10,06,06,12,8.30
2012,10,06,06,13,8.30
2012,10,06,06,14,8.30
2012,10,06,06,15,8.30
2012,10,06,06,16,8.20
2012,10,06,06,17,8.30
2012,10,06,06,18,8.30
2012,10,06,06,19,8.40
2012,10,06,06,20,8.40
2012,10,06,06,21,8.50
2012,10,06,06,22,8.50
2012,10,06,06,23,8.60
2012,10,06,06,24,8.60
2012,10,06,06,25,8.60
2012,10,06,06,26,8.50
2012,10,06,06,27,8.50
2012,10,06,06,28,8.50
2012,10,06,06,29,8.50
2012,10,06,06,30,8.50
2012,10,06,06,31,8.40
2012,10,06,06,32,8.40
2012,10,06,06,33,8.40
2012,10,06,06,34,8.40
2012,10,06,06,35,8.40
2012,10,06,06,36,8.40
2012,10,06,06,37,8.40
2012,10,06,06,38,8.40
2012,10,06,06,39,8.40
2012,10,06,06,40,8.30
2012,10,06,06,41,8.30
2012,10,06,06,42,8.30
2012,10,06,06,43,8.40
2012,10,06,06,44,8.40
2012,10,06,06,45,8.40
2012,10,06,06,46,8.40
2012,10,06,06,47,8.40
2012,10,06,06,48,8.40
2012,10,06,06,49,8.30
2012,10,06,06,50,8.30
2012,10,06,06,51,8.30
2012,10,06,06,52,8.30
2012,10,06,06,53,8.20
2012,10,06,06,54,8.20
2012,10,06,06,55,8.20
2012,10,06,06,56,8.20
2012,10,06,06,57,8.20
2012,10,06,06,58,8.20
2012,10,06,06,59,8.10
2012,10,06,07,00,8.10
2012,10,06,07,01,8.10
2012,10,06,07,02,8.10
2012,10,06,07,03,8.10
2012,10,06,07,04,8.10
2012,10,06,07,05,8.10
2012,10,06,07,06,8.20
2012,10,06,07,07,8.20
2012,10,06,07,08,8.20
2012,10,06,07,09,8.20
2012,10,06,07,10,8.30
2012,10,06,07,11,8.30
2012,10,06,07,12,8.40
2012,10,06,07,13,8.50
2012,10,06,07,14,8.50
2012,10,06,07,15,8.60
2012,10,06,07,16,8.60
2012,10,06,07,17,8.60
2012,10,06,07,18,8.70
2012,10,06,07,19,8.70
2012,10,06,07,20,8.70
2012,10,06,07,21,8.70
2012,10,06,07,22,8.70
2012,10,06,07,23,8.70
2012,10,06,07,24,8.70
2012,10,06,07,25,8.70
2012,10,06,07,26,8.60
2012,10,06,07,27,8.60
2012,10,06,07,28,8.50
2012,10,06,07,29,8.50
2012,10,06,07,30,8.40
2012,10,06,07,31,8.40
2012,10,06,07,32,8.30
2012,10,06,07,33,8.30
2012,10,06,07,34,8.20
2012,10,06,07,35,8.20
2012,10,06,07,36,8.10
2012,10,06,07,37,8.10
2012,10,06,07,38,8.00
2012,10,06,07,39,8.00
2012,10,06,07,40,7.90
2012,10,06,07,41,7.90
2012,10,06,07,42,7.80
2012,10,06,07,43,7.80
2012,10,06,07,44,7.80
2012,10,06,07,45,7.80
2012,10,06,07,46,7.80
2012,10,06,07,47,7.80
2012,10,06,07,48,7.80
2012,10,06,07,49,7.70
2012,10,06,07,50,7.70
2012,10,06,07,51,7.70
2012,10,06,07,52,7.70
2012,10,06,07,53,7.70
2012,10,06,07,54,7.60
2012,10,06,07,55,7.60
2012,10,06,07,56,7.60
2012,10,06,07,57,7.60
2012,10,06,07,58,7.70
2012,10,06,07,59,7.70
2012,10,06,08,00,7.70
2012,10,06,08,01,7.80
2012,10,06,08,02,7.80
2012,10,06,08,03,7.80
2012,10,06,08,04,7.80
2012,10,06,08,05,7.90
2012,10,06,08,06,7.90
2012,10,06,08,07,8.00
2012,10,06,08,08,8.10
2012,10,06,08,09,8.10
2012,10,06,08,10,8.20
2012,10,06,08,11,8.40
2012,10,06,08,12,8.50
2012,10,06,08,13,8.70
2012,10,06,08,14,8.80
2012,10,06,08,15,8.90
2012,10,06,08,16,9.00
2012,10,06,08,17,9.10
2012,10,06,08,18,9.20
2012,10,06,08,19,9.30
2012,10,06,08,20,9.40
2012,10,06,08,21,9.50
2012,10,06,08,22,9.50
2012,10,06,08,23,9.60
2012,10,06,08,24,9.70
2012,10,06,08,25,9.70
2012,10,06,08,26,9.80
2012,10,06,08,27,9.90
2012,10,06,08,28,9.90
2012,10,06,08,29,10.00
2012,10,06,08,30,10.10
2012,10,06,08,31,10.10
2012,10,06,08,32,10.20
2012,10,06,08,33,10.30
2012,10,06,08,34,10.30
2012,10,06,08,35,10.40
2012,10,06,08,36,10.50
2012,10,06,08,37,10.60
2012,10,06,08,38,10.70
2012,10,06,08,39,10.70
2012,10,06,08,40,10.80
2012,10,06,08,41,10.90
2012,10,06,08,42,11.00
2012,10,06,08,43,11.10
2012,10,06,08,44,11.20
2012,10,06,08,45,11.30
2012,10,06,08,46,11.30
2012,10,06,08,47,11.40
2012,10,06,08,48,11.50
2012,10,06,08,49,11.70
2012,10,06,08,50,11.80
2012,10,06,08,51,11.90
2012,10,06,08,52,12.00
2012,10,06,08,53,12.10
2012,10,06,08,54,12.20
2012,10,06,08,55,12.30
2012,10,06,08,56,12.30
2012,10,06,08,57,12.40
2012,10,06,08,58,12.50
2012,10,06,08,59,12.60
2012,10,06,09,00,12.70
2012,10,06,09,01,12.80
2012,10,06,09,02,12.80
2012,10,06,09,03,12.90
2012,10,06,09,04,13.00
2012,10,06,09,05,13.10
2012,10,06,09,06,13.20
2012,10,06,09,07,13.30
2012,10,06,09,08,13.40
2012,10,06,09,09,13.40
2012,10,06,09,10,13.50
2012,10,06,09,11,13.50
2012,10,06,09,12,13.50
2012,10,06,09,13,13.60
2012,10,06,09,14,13.70
2012,10,06,09,15,13.70
2012,10,06,09,16,13.80
2012,10,06,09,17,13.90
2012,10,06,09,18,14.00
2012,10,06,09,19,14.00
2012,10,06,09,20,14.10
2012,10,06,09,21,14.20
2012,10,06,09,22,14.20
2012,10,06,09,23,14.20
2012,10,06,09,24,14.20
2012,10,06,09,25,14.30
2012,10,06,09,26,14.30
2012,10,06,09,27,14.40
2012,10,06,09,28,14.50
2012,10,06,09,29,14.50
2012,10,06,09,30,14.60
2012,10,06,09,31,14.70
2012,10,06,09,32,14.80
2012,10,06,09,33,14.80
2012,10,06,09,34,14.80
2012,10,06,09,35,14.80
2012,10,06,09,36,14.80
2012,10,06,09,37,14.80
2012,10,06,09,38,14.80
2012,10,06,09,39,14.80
2012,10,06,09,40,14.80
2012,10,06,09,41,14.90
2012,10,06,09,42,14.90
2012,10,06,09,43,15.00
2012,10,06,09,44,15.00
2012,10,06,09,45,15.00
2012,10,06,09,46,15.10
2012,10,06,09,47,15.20
2012,10,06,09,48,15.20
2012,10,06,09,49,15.10
2012,10,06,09,50,15.20
2012,10,06,09,51,15.20
2012,10,06,09,52,15.30
2012,10,06,09,53,15.30
2012,10,06,09,54,15.30
2012,10,06,09,55,15.30
2012,10,06,09,56,15.40
2012,10,06,09,57,15.50
2012,10,06,09,58,15.60
2012,10,06,09,59,15.60
2012,10,06,10,00,15.70
2012,10,06,10,01,15.60
2012,10,06,10,02,15.60
2012,10,06,10,03,15.50
2012,10,06,10,04,15.40
2012,10,06,10,05,15.30
2012,10,06,10,06,15.30
2012,10,06,10,07,15.30
2012,10,06,10,08,15.30
2012,10,06,10,09,15.30
2012,10,06,10,10,15.30
2012,10,06,10,11,15.30
2012,10,06,10,12,15.30
2012,10,06,10,13,15.30
2012,10,06,10,14,15.30
2012,10,06,10,15,15.30
2012,10,06,10,16,15.30
2012,10,06,10,17,15.30
2012,10,06,10,18,15.40
2012,10,06,10,19,15.60
2012,10,06,10,20,15.70
2012,10,06,10,21,15.80
2012,10,06,10,22,15.80
2012,10,06,10,23,15.80
2012,10,06,10,24,15.80
2012,10,06,10,25,15.80
2012,10,06,10,26,15.80
2012,10,06,10,27,15.70
2012,10,06,10,28,15.60
2012,10,06,10,29,15.60
2012,10,06,10,30,15.50
2012,10,06,10,31,15.50
2012,10,06,10,32,15.60
2012,10,06,10,33,15.60
2012,10,06,10,34,15.60
2012,10,06,10,35,15.60
2012,10,06,10,36,15.60
2012,10,06,10,37,15.60
2012,10,06,10,38,15.60
2012,10,06,10,39,15.50
2012,10,06,10,40,15.50
2012,10,06,10,41,15.50
2012,10,06,10,42,15.60
2012,10,06,10,43,15.60
2012,10,06,10,44,15.60
2012,10,06,10,45,15.60
2012,10,06,10,46,15.60
2012,10,06,10,47,15.60
2012,10,06,10,48,15.70
2012,10,06,10,49,15.80
2012,10,06,10,50,15.90
2012,10,06,10,51,16.00
2012,10,06,10,52,16.10
2012,10,06,10,53,16.10
2012,10,06,10,54,16.20
2012,10,06,10,55,16.30
2012,10,06,10,56,16.40
2012,10,06,10,57,16.40
2012,10,06,10,58,16.40
2012,10,06,10,59,16.40
2012,10,06,11,00,16.30
2012,10,06,11,01,16.30
2012,10,06,11,02,16.30
2012,10,06,11,03,16.30
2012,10,06,11,04,16.30
2012,10,06,11,05,16.30
2012,10,06,11,06,16.30
2012,10,06,11,07,16.40
2012,10,06,11,08,16.30
2012,10,06,11,09,16.30
2012,10,06,11,10,16.20
2012,10,06,11,11,16.20
2012,10,06,11,12,16.20
2012,10,06,11,13,16.10
2012,10,06,11,14,16.10
2012,10,06,11,15,16.10
2012,10,06,11,16,16.20
2012,10,06,11,17,16.20
2012,10,06,11,18,16.30
2012,10,06,11,19,16.30
2012,10,06,11,20,16.40
2012,10,06,11,21,16.40
2012,10,06,11,22,16.40
2012,10,06,11,23,16.40
2012,10,06,11,24,16.50
2012,10,06,11,25,16.60
2012,10,06,11,26,16.70
2012,10,06,11,27,16.70
2012,10,06,11,28,16.70
2012,10,06,11,29,16.80
2012,10,06,11,30,16.90
2012,10,06,11,31,17.00
2012,10,06,11,32,17.20
2012,10,06,11,33,17.30
2012,10,06,11,34,17.40
2012,10,06,11,35,17.50
2012,10,06,11,36,17.50
2012,10,06,11,37,17.60
2012,10,06,11,38,17.60
2012,10,06,11,39,17.50
2012,10,06,11,40,17.50
2012,10,06,11,41,17.50
2012,10,06,11,42,17.50
2012,10,06,11,43,17.40
2012,10,06,11,44,17.30
2012,10,06,11,45,17.20
2012,10,06,11,46,17.20
2012,10,06,11,47,17.30
2012,10,06,11,48,17.20
2012,10,06,11,49,17.20
2012,10,06,11,50,17.10
2012,10,06,11,51,17.00
2012,10,06,11,52,17.10
2012,10,06,11,53,17.10
2012,10,06,11,54,17.20
2012,10,06,11,55,17.20
2012,10,06,11,56,17.30
2012,10,06,11,57,17.30
2012,10,06,11,58,17.40
2012,10,06,11,59,17.50
2012,10,06,12,00,17.60
2012,10,06,12,01,17.60
2012,10,06,12,02,17.60
2012,10,06,12,03,17.50
2012,10,06,12,04,17.60
2012,10,06,12,05,17.70
2012,10,06,12,06,17.60
2012,10,06,12,07,17.60
2012,10,06,12,08,17.60
2012,10,06,12,09,17.60
2012,10,06,12,10,17.50
2012,10,06,12,11,17.50
2012,10,06,12,12,17.50
2012,10,06,12,13,17.50
2012,10,06,12,14,17.50
2012,10,06,12,15,17.40
2012,10,06,12,16,17.50
2012,10,06,12,17,17.50
2012,10,06,12,18,17.60
2012,10,06,12,19,17.60
2012,10,06,12,20,17.70
2012,10,06,12,21,17.70
2012,10,06,12,22,17.90
2012,10,06,12,23,17.90
2012,10,06,12,24,17.90
2012,10,06,12,25,18.00
2012,10,06,12,26,18.10
2012,10,06,12,27,18.10
2012,10,06,12,28,18.10
2012,10,06,12,29,18.20
2012,10,06,12,30,18.20
2012,10,06,12,31,18.10
2012,10,06,12,32,18.10
2012,10,06,12,33,18.20
2012,10,06,12,34,18.20
2012,10,06,12,35,18.20
2012,10,06,12,36,18.20
2012,10,06,12,37,18.20
2012,10,06,12,38,18.30
2012,10,06,12,39,18.40
2012,10,06,12,40,18.50
2012,10,06,12,41,18.60
2012,10,06,12,42,18.70
2012,10,06,12,43,18.70
2012,10,06,12,44,18.80
2012,10,06,12,45,18.90
2012,10,06,12,46,18.90
2012,10,06,12,47,18.90
2012,10,06,12,48,19.00
2012,10,06,12,49,19.10
2012,10,06,12,50,19.00
2012,10,06,12,51,18.90
2012,10,06,12,52,18.70
2012,10,06,12,53,18.60
2012,10,06,12,54,18.60
2012,10,06,12,55,18.70
2012,10,06,12,56,18.60
2012,10,06,12,57,18.70
2012,10,06,12,58,18.60
2012,10,06,12,59,18.60
2012,10,06,13,00,18.70
2012,10,06,13,01,18.70
2012,10,06,13,02,18.70
2012,10,06,13,03,18.70
2012,10,06,13,04,18.70
2012,10,06,13,05,18.80
2012,10,06,13,06,18.90
2012,10,06,13,07,18.90
2012,10,06,13,08,18.90
2012,10,06,13,09,18.90
2012,10,06,13,10,19.00
2012,10,06,13,11,19.10
2012,10,06,13,12,19.10
2012,10,06,13,13,19.20
2012,10,06,13,14,19.10
2012,10,06,13,15,19.20
2012,10,06,13,16,19.30
2012,10,06,13,17,19.30
2012,10,06,13,18,19.30
2012,10,06,13,19,19.30
2012,10,06,13,20,19.40
2012,10,06,13,21,19.50
2012,10,06,13,22,19.50
2012,10,06,13,23,19.50
2012,10,06,13,24,19.50
2012,10,06,13,25,19.60
2012,10,06,13,26,19.60
2012,10,06,13,27,19.60
2012,10,06,13,28,19.60
2012,10,06,13,29,19.60
2012,10,06,13,30,19.60
2012,10,06,13,31,19.60
2012,10,06,13,32,19.70
2012,10,06,13,33,19.80
2012,10,06,13,34,19.90
2012,10,06,13,35,19.90
2012,10,06,13,36,19.70
2012,10,06,13,37,19.60
2012,10,06,13,38,19.60
2012,10,06,13,39,19.40
2012,10,06,13,40,19.30
2012,10,06,13,41,19.20
2012,10,06,13,42,19.20
2012,10,06,13,43,19.30
2012,10,06,13,44,19.30
2012,10,06,13,45,19.20
2012,10,06,13,46,19.20
2012,10,06,13,47,19.20
2012,10,06,13,48,19.10
2012,10,06,13,49,19.20
2012,10,06,13,50,19.20
2012,10,06,13,51,19.10
2012,10,06,13,52,19.10
2012,10,06,13,53,19.20
2012,10,06,13,54,19.40
2012,10,06,13,55,19.40
2012,10,06,13,56,19.40
2012,10,06,13,57,19.50
2012,10,06,13,58,19.60
2012,10,06,13,59,19.70
2012,10,06,14,00,19.80
2012,10,06,14,01,19.80
2012,10,06,14,02,19.90
2012,10,06,14,03,19.80
2012,10,06,14,04,19.80
2012,10,06,14,05,19.80
2012,10,06,14,06,19.90
2012,10,06,14,07,19.90
2012,10,06,14,08,19.90
2012,10,06,14,09,20.10
2012,10,06,14,10,20.20
2012,10,06,14,11,20.40
2012,10,06,14,12,20.50
2012,10,06,14,13,20.60
2012,10,06,14,14,20.60
2012,10,06,14,15,20.50
2012,10,06,14,16,20.50
2012,10,06,14,17,20.50
2012,10,06,14,18,20.40
2012,10,06,14,19,20.30
2012,10,06,14,20,20.20
2012,10,06,14,21,20.30
2012,10,06,14,22,20.40
2012,10,06,14,23,20.50
2012,10,06,14,24,20.50
2012,10,06,14,25,20.50
2012,10,06,14,26,20.40
2012,10,06,14,27,20.40
2012,10,06,14,28,20.30
2012,10,06,14,29,20.40
2012,10,06,14,30,20.40
2012,10,06,14,31,20.50
2012,10,06,14,32,20.60
2012,10,06,14,33,20.60
2012,10,06,14,34,20.60
2012,10,06,14,35,20.60
2012,10,06,14,36,20.60
2012,10,06,14,37,20.70
2012,10,06,14,38,20.80
2012,10,06,14,39,20.90
2012,10,06,14,40,20.90
2012,10,06,14,41,20.90
2012,10,06,14,42,20.80
2012,10,06,14,43,20.70
2012,10,06,14,44,20.50
2012,10,06,14,45,20.50
2012,10,06,14,46,20.40
2012,10,06,14,47,20.40
2012,10,06,14,48,20.30
2012,10,06,14,49,20.30
2012,10,06,14,50,20.20
2012,10,06,14,51,20.20
2012,10,06,14,52,20.20
2012,10,06,14,53,20.20
2012,10,06,14,54,20.20
2012,10,06,14,55,20.20
2012,10,06,14,56,20.20
2012,10,06,14,57,20.20
2012,10,06,14,58,20.20
2012,10,06,14,59,20.20
2012,10,06,15,00,20.20
2012,10,06,15,01,20.20
2012,10,06,15,02,20.10
2012,10,06,15,03,20.10
2012,10,06,15,04,20.10
2012,10,06,15,05,20.20
2012,10,06,15,06,20.10
2012,10,06,15,07,20.10
2012,10,06,15,08,19.90
2012,10,06,15,09,20.00
2012,10,06,15,10,20.10
2012,10,06,15,11,20.20
2012,10,06,15,12,20.40
2012,10,06,15,13,20.50
2012,10,06,15,14,20.60
2012,10,06,15,15,20.60
2012,10,06,15,16,20.60
2012,10,06,15,17,20.60
2012,10,06,15,18,20.70
2012,10,06,15,19,20.70
2012,10,06,15,20,20.80
2012,10,06,15,21,20.80
2012,10,06,15,22,20.90
2012,10,06,15,23,20.90
2012,10,06,15,24,20.90
2012,10,06,15,25,20.80
2012,10,06,15,26,20.60
2012,10,06,15,27,20.50
2012,10,06,15,28,20.40
2012,10,06,15,29,20.40
2012,10,06,15,30,20.20
2012,10,06,15,31,20.10
2012,10,06,15,32,19.90
2012,10,06,15,33,19.90
2012,10,06,15,34,19.80
2012,10,06,15,35,19.80
2012,10,06,15,36,19.90
2012,10,06,15,37,20.00
2012,10,06,15,38,20.20
2012,10,06,15,39,20.30
2012,10,06,15,40,20.40
2012,10,06,15,41,20.50
2012,10,06,15,42,20.60
2012,10,06,15,43,20.70
2012,10,06,15,44,20.80
2012,10,06,15,45,20.90
2012,10,06,15,46,20.90
2012,10,06,15,47,20.80
2012,10,06,15,48,20.70
2012,10,06,15,49,20.60
2012,10,06,15,50,20.50
2012,10,06,15,51,20.50
2012,10,06,15,52,20.40
2012,10,06,15,53,20.30
2012,10,06,15,54,20.30
2012,10,06,15,55,20.20
2012,10,06,15,56,20.30
2012,10,06,15,57,20.30
2012,10,06,15,58,20.30
2012,10,06,15,59,20.20
2012,10,06,16,00,20.10
2012,10,06,16,01,20.00
2012,10,06,16,02,19.90
2012,10,06,16,03,20.00
2012,10,06,16,04,20.10
2012,10,06,16,05,20.10
2012,10,06,16,06,20.20
2012,10,06,16,07,20.20
2012,10,06,16,08,20.20
2012,10,06,16,09,20.10
2012,10,06,16,10,20.10
2012,10,06,16,11,20.20
2012,10,06,16,12,20.20
2012,10,06,16,13,20.20
2012,10,06,16,14,20.20
2012,10,06,16,15,20.20
2012,10,06,16,16,20.20
2012,10,06,16,17,20.20
2012,10,06,16,18,20.20
2012,10,06,16,19,20.20
2012,10,06,16,20,20.20
2012,10,06,16,21,20.30
2012,10,06,16,22,20.20
2012,10,06,16,23,20.20
2012,10,06,16,24,20.30
2012,10,06,16,25,20.30
2012,10,06,16,26,20.40
2012,10,06,16,27,20.40
2012,10,06,16,28,20.50
2012,10,06,16,29,20.50
2012,10,06,16,30,20.40
2012,10,06,16,31,20.40
2012,10,06,16,32,20.30
2012,10,06,16,33,20.20
2012,10,06,16,34,20.10
2012,10,06,16,35,20.00
2012,10,06,16,36,19.90
2012,10,06,16,37,19.90
2012,10,06,16,38,19.80
2012,10,06,16,39,19.80
2012,10,06,16,40,19.90
2012,10,06,16,41,19.90
2012,10,06,16,42,19.90
2012,10,06,16,43,19.90
2012,10,06,16,44,19.90
2012,10,06,16,45,19.90
2012,10,06,16,46,19.90
2012,10,06,16,47,19.90
2012,10,06,16,48,19.90
2012,10,06,16,49,19.90
2012,10,06,16,50,19.90
2012,10,06,16,51,19.80
2012,10,06,16,52,19.80
2012,10,06,16,53,19.80
2012,10,06,16,54,19.80
2012,10,06,16,55,19.80
2012,10,06,16,56,19.80
2012,10,06,16,57,19.80
2012,10,06,16,58,19.80
2012,10,06,16,59,19.80
2012,10,06,17,00,19.80
2012,10,06,17,01,19.80
2012,10,06,17,02,19.80
2012,10,06,17,03,19.90
2012,10,06,17,04,19.90
2012,10,06,17,05,19.90
2012,10,06,17,06,19.90
2012,10,06,17,07,19.90
2012,10,06,17,08,19.90
2012,10,06,17,09,19.90
2012,10,06,17,10,19.90
2012,10,06,17,11,19.90
2012,10,06,17,12,19.90
2012,10,06,17,13,20.00
2012,10,06,17,14,20.10
2012,10,06,17,15,20.10
2012,10,06,17,16,20.00
2012,10,06,17,17,19.90
2012,10,06,17,18,19.90
2012,10,06,17,19,19.90
2012,10,06,17,20,19.80
2012,10,06,17,21,19.80
2012,10,06,17,22,19.70
2012,10,06,17,23,19.70
2012,10,06,17,24,19.60
2012,10,06,17,25,19.60
2012,10,06,17,26,19.60
2012,10,06,17,27,19.60
2012,10,06,17,28,19.60
2012,10,06,17,29,19.50
2012,10,06,17,30,19.60
2012,10,06,17,31,19.60
2012,10,06,17,32,19.50
2012,10,06,17,33,19.50
2012,10,06,17,34,19.50
2012,10,06,17,35,19.50
2012,10,06,17,36,19.50
2012,10,06,17,37,19.50
2012,10,06,17,38,19.40
2012,10,06,17,39,19.30
2012,10,06,17,40,19.20
2012,10,06,17,41,19.10